FENGYUN 1C DEB, 31410

Orbit data source: Space-Track

FENGYUN 1C DEB, 31410 is space debris in SSO originally from a launch on Mon, 10 May 1999 UTC launched from the Taiyaun Space Center, China (TSC). Fengyun 1C debris stems from the Chinese weather satellite Fengyun-1C, which was intentionally destroyed by a Chinese anti-satellite missile in 2007. This event dramatically increased the amount of space debris, with thousands of trackable fragments posing hazards to satellites and human spaceflight. The Fengyun 1C debris cloud has become a focal point in discussions about space sustainability and the need for international regulations to prevent the creation of new debris.

Loading next visibility...
Identifier
31410, 1999-025BSW
Orbit
SSO
Country
Flag of CNCN / PRC
Related business
Manufacturer
Unknown
Mission
Spacecraft
Bus & Motor
Unknown
Mass
Unknown
Launch date (UTC)
1999-05-10 (27 years ago)
Launch vehicle
Unknown
Launch site
Taiyaun Space Center, China (TSC)
Object type
Payload
Rocket body
Debris
Shape & HBR
Unknown shape, 0.1 m
Radar Cross Section
Small (<0.1 m²)

Expand to show TLE details & history
Last TLE update: 14 hours ago

TLE from 14 hours ago
0 FENGYUN 1C DEB
1 31410U 99025BSW 26263.99309796  .00001403  00000-0  37858-3 0  9997
2 31410  98.8599  82.6046 0108904 161.6427 349.8881 14.46136539 18253
Epoch: 2026-09-20T23:50Z
TLE epoch observation values (Epoch: 2026-09-20T23:50:03.663Z)
Latitude
28.36424°
Longitude
-89.98858°
Altitude
665.524 km
Speed
7.567 km/s
True Right ascension
17h 49m 37s
True Declination
28° 13' 08"
Sunlit
Object was in daylight at epoch
Visualization orbit readout
Latitude
Unknown
Longitude
Unknown
Altitude
Unknown
Speed
Unknown
Apparent Right ascension
Unknown
Apparent Declination
Unknown
Sunlit
N/A
Visualization observer readout
Local Sidereal Time
06:57:03
Azimuth
Unknown
Elevation
Unknown
Doppler factor
Unknown
Orbital elements
Apogee altitude
812.895 km
Perigee altitude
657.956 km
Semi-major axis
7,113.563 km
Eccentricity
0.01089
Inclination
98.8599°
RAAN
82.6046°
Arg. of periapsis
161.6427°
True anomaly
349.66602°
Mean anomaly
349.8881°
Eccentric anomaly
349.77736°
Mean motion
3.61753 °/min
Orbital period
99.52 mins
BSTAR
0.00037858
Loading maneuver chart data...
Computing Atmospheric mass density...

Documentation

Showing up to 5 results
|